| time (UTC) | temp C | wind direction | speed KPH | gust KPH | rain 1hr cm | rain 24hr cm | rain mn cm | humidity % | barometer mb |
| 20260504110549 | 6 | 166 | 3.2 | 6.4 | 0.00 | 0.00 | 0.00 | 67 | 1013.8 |
| 20260504100550 | 5 | 203 | 3.2 | 6.4 | 0.00 | 0.00 | 0.00 | 65 | 1013.6 |
| 20260504081608 | 7 | 177 | 6.4 | 9.7 | 0.00 | 0.00 | 0.00 | 56 | 1013.5 |
| 20260504081047 | 7 | 185 | 4.8 | 8.0 | 0.00 | 0.00 | 0.00 | 55 | 1013.6 |
| 20260504080550 | 6 | 205 | 4.8 | 8.0 | 0.00 | 0.00 | 0.00 | 57 | 1013.7 |
| 20260504080111 | 6 | 175 | 4.8 | 8.0 | 0.00 | 0.00 | 0.00 | 57 | 1013.7 |
| 20260504050549 | 7 | 220 | 6.4 | 11.3 | 0.00 | 0.00 | 0.00 | 51 | 1014.4 |
| 20260504050106 | 7 | 199 | 6.4 | 11.3 | 0.00 | 0.00 | 0.00 | 51 | 1014.4 |
| 20260504045546 | 7 | 204 | 6.4 | 9.7 | 0.00 | 0.00 | 0.00 | 50 | 1014.5 |
| 20260504045048 | 7 | 200 | 6.4 | 9.7 | 0.00 | 0.00 | 0.00 | 50 | 1014.5 |
| 20260504044601 | 7 | 193 | 4.8 | 11.3 | 0.00 | 0.00 | 0.00 | 51 | 1014.5 |
| 20260504044047 | 7 | 203 | 6.4 | 11.3 | 0.00 | 0.00 | 0.00 | 51 | 1014.5 |
| 20260504043547 | 7 | 206 | 8.0 | 11.3 | 0.00 | 0.00 | 0.00 | 50 | 1014.5 |
| 20260504043056 | 7 | 179 | 6.4 | 11.3 | 0.00 | 0.00 | 0.00 | 50 | 1014.4 |
| 20260504042547 | 7 | 191 | 6.4 | 9.7 | 0.00 | 0.00 | 0.00 | 49 | 1014.4 |
| 20260504042050 | 7 | 214 | 6.4 | 9.7 | 0.00 | 0.00 | 0.00 | 49 | 1014.6 |
| 20260504041558 | 8 | 201 | 6.4 | 9.7 | 0.00 | 0.00 | 0.00 | 49 | 1014.4 |
| 20260504041049 | 8 | 191 | 4.8 | 8.0 | 0.00 | 0.00 | 0.00 | 48 | 1014.4 |
| 20260504040551 | 8 | 193 | 4.8 | 9.7 | 0.00 | 0.00 | 0.00 | 47 | 1014.3 |
| 20260504035548 | 8 | 219 | 4.8 | 9.7 | 0.00 | 0.00 | 0.00 | 48 | 1014.4 |
| 20260504035049 | 8 | 200 | 4.8 | 9.7 | 0.00 | 0.00 | 0.00 | 48 | 1014.5 |
| 20260504034550 | 8 | 224 | 4.8 | 9.7 | 0.00 | 0.00 | 0.00 | 48 | 1014.5 |
| 20260504034050 | 8 | 210 | 4.8 | 8.0 | 0.00 | 0.00 | 0.00 | 48 | 1014.5 |
| 20260504033548 | 8 | 220 | 3.2 | 9.7 | 0.00 | 0.00 | 0.00 | 48 | 1014.6 |
| 20260504033051 | 8 | 227 | 6.4 | 9.7 | 0.00 | 0.00 | 0.00 | 46 | 1014.5 |
| 20260504032547 | 8 | 243 | 6.4 | 9.7 | 0.00 | 0.00 | 0.00 | 46 | 1014.5 |
| 20260504032047 | 8 | 250 | 3.2 | 9.7 | 0.00 | 0.00 | 0.00 | 45 | 1014.4 |
| 20260504031553 | 8 | 251 | 6.4 | 12.9 | 0.00 | 0.00 | 0.00 | 45 | 1014.5 |
| 20260504031046 | 8 | 228 | 6.4 | 12.9 | 0.00 | 0.00 | 0.00 | 45 | 1014.3 |
| 20260504030548 | 8 | 218 | 4.8 | 9.7 | 0.00 | 0.00 | 0.00 | 45 | 1014.3 |
| 20260504030055 | 8 | 224 | 4.8 | 12.9 | 0.00 | 0.00 | 0.00 | 44 | 1014.3 |
| 20260504025548 | 8 | 214 | 4.8 | 12.9 | 0.00 | 0.00 | 0.00 | 44 | 1014.4 |
| 20260504025049 | 8 | 198 | 6.4 | 12.9 | 0.00 | 0.00 | 0.00 | 44 | 1014.3 |
| 20260504024614 | 8 | 198 | 4.8 | 9.7 | 0.00 | 0.00 | 0.00 | 44 | 1014.5 |
| 20260504024048 | 8 | 203 | 4.8 | 9.7 | 0.00 | 0.00 | 0.00 | 44 | 1014.5 |
| 20260504023546 | 8 | 209 | 4.8 | 9.7 | 0.00 | 0.00 | 0.00 | 45 | 1014.4 |
| 20260504023054 | 8 | 202 | 4.8 | 9.7 | 0.00 | 0.00 | 0.00 | 45 | 1014.5 |
| 20260504022549 | 8 | 207 | 4.8 | 9.7 | 0.00 | 0.00 | 0.00 | 45 | 1014.5 |
| 20260504022048 | 8 | 196 | 1.6 | 6.4 | 0.00 | 0.00 | 0.00 | 45 | 1014.5 |
| 20260504021552 | 8 | 188 | 3.2 | 6.4 | 0.00 | 0.00 | 0.00 | 44 | 1014.5 |
| 20260504021049 | 8 | 220 | 3.2 | 6.4 | 0.00 | 0.00 | 0.00 | 44 | 1014.6 |
| 20260504020548 | 8 | 217 | 3.2 | 6.4 | 0.00 | 0.00 | 0.00 | 44 | 1014.5 |
| 20260504020051 | 9 | 217 | 1.6 | 8.0 | 0.00 | 0.00 | 0.00 | 43 | 1014.4 |
| 20260504015548 | 9 | 179 | 4.8 | 8.0 | 0.00 | 0.00 | 0.00 | 42 | 1014.1 |
| 20260504015047 | 9 | 195 | 4.8 | 9.7 | 0.00 | 0.00 | 0.00 | 42 | 1013.9 |
| 20260504014603 | 9 | 221 | 1.6 | 9.7 | 0.00 | 0.00 | 0.00 | 42 | 1014.1 |
| 20260504014048 | 9 | 210 | 1.6 | 6.4 | 0.00 | 0.00 | 0.00 | 42 | 1014.2 |
| 20260504013548 | 9 | 289 | 3.2 | 6.4 | 0.00 | 0.00 | 0.00 | 41 | 1014.2 |
| 20260504013059 | 9 | 297 | 3.2 | 9.7 | 0.00 | 0.00 | 0.00 | 41 | 1014.1 |
| 20260504012550 | 10 | 297 | 3.2 | 9.7 | 0.00 | 0.00 | 0.00 | 41 | 1014.0 |
| 20260504012050 | 10 | 282 | 4.8 | 9.7 | 0.00 | 0.00 | 0.00 | 40 | 1014.0 |
| 20260504011552 | 10 | 334 | 4.8 | 8.0 | 0.00 | 0.00 | 0.00 | 39 | 1014.1 |
| 20260504011047 | 10 | 295 | 3.2 | 8.0 | 0.00 | 0.00 | 0.00 | 39 | 1013.8 |
| 20260504010547 | 10 | 285 | 4.8 | 8.0 | 0.00 | 0.00 | 0.00 | 38 | 1013.8 |
| 20260504010104 | 10 | 330 | 4.8 | 9.7 | 0.00 | 0.00 | 0.00 | 38 | 1013.8 |
| 20260504005549 | 10 | 248 | 4.8 | 9.7 | 0.00 | 0.00 | 0.00 | 38 | 1013.9 |
| 20260504005049 | 10 | 278 | 4.8 | 9.7 | 0.00 | 0.00 | 0.00 | 38 | 1013.7 |
| 20260504004554 | 10 | 254 | 1.6 | 8.0 | 0.00 | 0.00 | 0.00 | 38 | 1013.8 |
| 20260504004050 | 10 | 265 | 3.2 | 8.0 | 0.00 | 0.00 | 0.00 | 38 | 1013.6 |
| 20260504003551 | 10 | 293 | 3.2 | 9.7 | 0.00 | 0.00 | 0.00 | 37 | 1013.6 |
| 20260504003057 | 10 | 281 | 3.2 | 11.3 | 0.00 | 0.00 | 0.00 | 37 | 1013.5 |
| 20260504002547 | 11 | 264 | 3.2 | 11.3 | 0.00 | 0.00 | 0.00 | 37 | 1013.3 |
| 20260504002048 | 11 | 272 | 3.2 | 11.3 | 0.00 | 0.00 | 0.00 | 37 | 1013.4 |
| 20260504001554 | 11 | 259 | 4.8 | 11.3 | 0.00 | 0.00 | 0.00 | 37 | 1013.2 |
| 20260504001049 | 11 | 286 | 3.2 | 6.4 | 0.00 | 0.00 | 0.00 | 38 | 1013.5 |
| 20260504000549 | 11 | 313 | 3.2 | 9.7 | 0.00 | 0.00 | 0.00 | 38 | 1013.6 |
| 20260504000138 | 11 | 328 | 3.2 | 9.7 | 0.00 | 0.00 | 0.00 | 38 | 1013.6 |
| 20260503235548 | 11 | 257 | 3.2 | 9.7 | 0.00 | 0.00 | 0.00 | 37 | 1013.7 |
| 20260503235049 | 11 | 327 | 3.2 | 12.9 | 0.00 | 0.00 | 0.00 | 37 | 1013.6 |
| 20260503234558 | 11 | 330 | 4.8 | 14.5 | 0.00 | 0.00 | 0.00 | 36 | 1013.5 |
| 20260503234052 | 12 | 330 | 6.4 | 14.5 | 0.00 | 0.00 | 0.00 | 36 | 1013.6 |
| 20260503233550 | 12 | 329 | 6.4 | 14.5 | 0.00 | 0.00 | 0.00 | 35 | 1013.6 |
| 20260503233053 | 12 | 314 | 8.0 | 12.9 | 0.00 | 0.00 | 0.00 | 34 | 1013.6 |
| 20260503232548 | 12 | 326 | 6.4 | 12.9 | 0.00 | 0.00 | 0.00 | 34 | 1013.5 |
| 20260503232049 | 13 | 304 | 6.4 | 14.5 | 0.00 | 0.00 | 0.00 | 34 | 1013.6 |
| 20260503231555 | 13 | 310 | 8.0 | 17.7 | 0.00 | 0.00 | 0.00 | 33 | 1013.5 |
| 20260503231049 | 13 | 331 | 6.4 | 17.7 | 0.00 | 0.00 | 0.00 | 33 | 1013.5 |
| 20260503230549 | 13 | 321 | 9.7 | 19.3 | 0.00 | 0.00 | 0.00 | 32 | 1013.4 |
| 20260503230051 | 13 | 309 | 8.0 | 19.3 | 0.00 | 0.00 | 0.00 | 31 | 1013.5 |
| 20260503225548 | 13 | 319 | 4.8 | 17.7 | 0.00 | 0.00 | 0.00 | 32 | 1013.5 |
| 20260503225048 | 13 | 342 | 9.7 | 19.3 | 0.00 | 0.00 | 0.00 | 31 | 1013.6 |
| 20260503224554 | 13 | 249 | 11.3 | 19.3 | 0.00 | 0.00 | 0.00 | 31 | 1013.6 |
| 20260503224049 | 13 | 339 | 8.0 | 19.3 | 0.00 | 0.00 | 0.00 | 32 | 1013.6 |
| 20260503223548 | 13 | 330 | 8.0 | 19.3 | 0.00 | 0.00 | 0.00 | 30 | 1013.7 |
| 20260503223053 | 13 | 307 | 9.7 | 19.3 | 0.00 | 0.00 | 0.00 | 30 | 1013.6 |
| 20260503222548 | 13 | 326 | 11.3 | 19.3 | 0.00 | 0.00 | 0.00 | 30 | 1013.7 |
| 20260503222048 | 13 | 305 | 6.4 | 17.7 | 0.00 | 0.00 | 0.00 | 31 | 1013.6 |
| 20260503221557 | 14 | 298 | 8.0 | 17.7 | 0.00 | 0.00 | 0.00 | 32 | 1013.6 |
| 20260503221048 | 14 | 338 | 8.0 | 16.1 | 0.00 | 0.00 | 0.00 | 32 | 1013.7 |
| 20260503220548 | 14 | 333 | 9.7 | 20.9 | 0.00 | 0.00 | 0.00 | 31 | 1013.7 |
| 20260503220055 | 14 | 305 | 6.4 | 20.9 | 0.00 | 0.00 | 0.00 | 31 | 1013.8 |
| 20260503215548 | 14 | 330 | 6.4 | 20.9 | 0.00 | 0.00 | 0.00 | 32 | 1013.8 |
| 20260503215047 | 14 | 349 | 12.9 | 20.9 | 0.00 | 0.00 | 0.00 | 30 | 1013.8 |
| 20260503214554 | 14 | 275 | 4.8 | 17.7 | 0.00 | 0.00 | 0.00 | 29 | 1013.8 |
| 20260503214048 | 14 | 244 | 8.0 | 16.1 | 0.00 | 0.00 | 0.00 | 31 | 1013.9 |
| 20260503213547 | 13 | 340 | 6.4 | 24.1 | 0.00 | 0.00 | 0.00 | 32 | 1013.8 |
| 20260503213057 | 13 | 286 | 6.4 | 24.1 | 0.00 | 0.00 | 0.00 | 31 | 1013.9 |
| 20260503212548 | 13 | 219 | 11.3 | 24.1 | 0.00 | 0.00 | 0.00 | 31 | 1014.0 |
| 20260503212048 | 13 | 229 | 9.7 | 22.5 | 0.00 | 0.00 | 0.00 | 32 | 1014.0 |
| 20260503211611 | 14 | 246 | 8.0 | 17.7 | 0.00 | 0.00 | 0.00 | 31 | 1013.9 |
| 20260503211048 | 13 | 335 | 6.4 | 19.3 | 0.00 | 0.00 | 0.00 | 30 | 1013.9 |
| 20260503210549 | 13 | 230 | 8.0 | 19.3 | 0.00 | 0.00 | 0.00 | 30 | 1013.8 |
| 20260503210053 | 14 | 299 | 9.7 | 19.3 | 0.00 | 0.00 | 0.00 | 30 | 1013.9 |
| 20260503205549 | 14 | 341 | 6.4 | 14.5 | 0.00 | 0.00 | 0.00 | 34 | 1013.8 |
| 20260503205047 | 14 | 312 | 6.4 | 14.5 | 0.00 | 0.00 | 0.00 | 34 | 1013.8 |
| 20260503204557 | 14 | 315 | 6.4 | 19.3 | 0.00 | 0.00 | 0.00 | 32 | 1013.8 |
| 20260503204048 | 14 | 259 | 12.9 | 19.3 | 0.00 | 0.00 | 0.00 | 35 | 1013.9 |
| 20260503203546 | 13 | 336 | 4.8 | 14.5 | 0.00 | 0.00 | 0.00 | 32 | 1014.0 |
| 20260503203107 | 13 | 222 | 8.0 | 20.9 | 0.00 | 0.00 | 0.00 | 33 | 1014.1 |
| 20260503202548 | 13 | 235 | 8.0 | 20.9 | 0.00 | 0.00 | 0.00 | 31 | 1014.2 |
| 20260503202050 | 14 | 287 | 12.9 | 30.6 | 0.00 | 0.00 | 0.00 | 31 | 1014.2 |
| 20260503201555 | 13 | 297 | 16.1 | 38.6 | 0.00 | 0.00 | 0.00 | 33 | 1014.1 |
| 20260503201047 | 13 | 329 | 19.3 | 38.6 | 0.00 | 0.00 | 0.00 | 31 | 1014.2 |
| 20260503200551 | 13 | 343 | 14.5 | 25.7 | 0.00 | 0.00 | 0.00 | 34 | 1014.3 |
| 20260503200058 | 13 | 310 | 12.9 | 24.1 | 0.00 | 0.00 | 0.00 | 34 | 1014.4 |
| 20260503195547 | 13 | 321 | 12.9 | 24.1 | 0.00 | 0.00 | 0.00 | 29 | 1014.3 |
| 20260503195047 | 13 | 343 | 9.7 | 20.9 | 0.00 | 0.00 | 0.00 | 30 | 1014.5 |
| 20260503194555 | 13 | 338 | 9.7 | 25.7 | 0.00 | 0.00 | 0.00 | 33 | 1014.4 |
| 20260503194050 | 13 | 317 | 11.3 | 25.7 | 0.00 | 0.00 | 0.00 | 31 | 1014.6 |
| 20260503193547 | 13 | 334 | 17.7 | 27.4 | 0.00 | 0.00 | 0.00 | 31 | 1014.6 |
| 20260503193057 | 13 | 330 | 12.9 | 27.4 | 0.00 | 0.00 | 0.00 | 34 | 1014.8 |
| 20260503192548 | 13 | 342 | 17.7 | 27.4 | 0.00 | 0.00 | 0.00 | 33 | 1014.6 |
| 20260503192047 | 13 | 356 | 17.7 | 25.7 | 0.00 | 0.00 | 0.00 | 30 | 1014.9 |
| 20260503191552 | 12 | 314 | 9.7 | 20.9 | 0.00 | 0.00 | 0.00 | 32 | 1014.9 |
| 20260503191050 | 12 | 317 | 12.9 | 20.9 | 0.00 | 0.00 | 0.00 | 34 | 1014.9 |
| 20260503190548 | 13 | 319 | 11.3 | 27.4 | 0.00 | 0.00 | 0.00 | 30 | 1014.9 |
| 20260503190053 | 12 | 326 | 8.0 | 27.4 | 0.00 | 0.00 | 0.00 | 33 | 1014.9 |
| 20260503185547 | 12 | 320 | 17.7 | 27.4 | 0.00 | 0.00 | 0.00 | 35 | 1015.0 |
| 20260503185045 | 12 | 343 | 4.8 | 17.7 | 0.00 | 0.00 | 0.00 | 31 | 1015.1 |
| 20260503184552 | 12 | 300 | 9.7 | 17.7 | 0.00 | 0.00 | 0.00 | 32 | 1015.1 |
| 20260503184050 | 12 | 275 | 8.0 | 20.9 | 0.00 | 0.00 | 0.00 | 33 | 1015.1 |
| 20260503183546 | 12 | 340 | 6.4 | 20.9 | 0.00 | 0.00 | 0.00 | 33 | 1015.2 |
| 20260503183051 | 12 | 354 | 11.3 | 22.5 | 0.00 | 0.00 | 0.00 | 32 | 1015.2 |
| 20260503182547 | 12 | 302 | 6.4 | 22.5 | 0.00 | 0.00 | 0.00 | 32 | 1015.3 |
| 20260503182047 | 12 | 287 | 9.7 | 22.5 | 0.00 | 0.00 | 0.00 | 34 | 1015.4 |
| 20260503181601 | 12 | 345 | 11.3 | 22.5 | 0.00 | 0.00 | 0.00 | 30 | 1015.5 |
| 20260503181049 | 11 | 276 | 9.7 | 22.5 | 0.00 | 0.00 | 0.00 | 34 | 1015.6 |
| 20260503180547 | 11 | 197 | 4.8 | 22.5 | 0.00 | 0.00 | 0.00 | 32 | 1015.5 |
| 20260503180054 | 11 | 308 | 9.7 | 22.5 | 0.00 | 0.00 | 0.00 | 34 | 1015.6 |
| 20260503175548 | 11 | 335 | 9.7 | 22.5 | 0.00 | 0.00 | 0.00 | 36 | 1015.7 |
| 20260503175048 | 10 | 293 | 11.3 | 22.5 | 0.00 | 0.00 | 0.00 | 33 | 1015.7 |
| 20260503174554 | 10 | 309 | 9.7 | 22.5 | 0.00 | 0.00 | 0.00 | 35 | 1015.7 |
| 20260503174048 | 11 | 350 | 11.3 | 22.5 | 0.00 | 0.00 | 0.00 | 31 | 1015.7 |
| 20260503173548 | 11 | 338 | 9.7 | 22.5 | 0.00 | 0.00 | 0.00 | 32 | 1015.8 |
| 20260503173059 | 11 | 324 | 11.3 | 22.5 | 0.00 | 0.00 | 0.00 | 35 | 1015.9 |
| 20260503172547 | 11 | 328 | 4.8 | 20.9 | 0.00 | 0.00 | 0.00 | 35 | 1015.9 |
| 20260503172048 | 11 | 317 | 9.7 | 20.9 | 0.00 | 0.00 | 0.00 | 35 | 1016.0 |
| 20260503171554 | 11 | 347 | 6.4 | 14.5 | 0.00 | 0.00 | 0.00 | 37 | 1015.9 |
| 20260503171048 | 10 | 318 | 3.2 | 20.9 | 0.00 | 0.00 | 0.00 | 36 | 1016.1 |
| 20260503170549 | 10 | 325 | 8.0 | 20.9 | 0.00 | 0.00 | 0.00 | 36 | 1016.3 |
| 20260503150548 | 7 | 354 | 14.5 | 29.0 | 0.00 | 0.00 | 0.00 | 43 | 1016.7 |
| 20260503131051 | 5 | 349 | 22.5 | 33.8 | 0.00 | 0.00 | 0.00 | 54 | 1016.2 |
| 20260503130548 | 4 | 354 | 17.7 | 27.4 | 0.00 | 0.00 | 0.00 | 55 | 1016.2 |